This demonstration page uses our WeatherBlox Daily Observations layout. Learn more.

Left ArrowRight Arrow

31.84235, -102.49876

Hourly Observations for August 27, 2017

Temp ( °F °C ) Dew Point ( °F °C ) Humidity (%) Winds ( mph kmh ) Pressure ( in mb ) Visibility ( mi km ) Precip ( " mm )
12:53 am 00:53 Clear 71 21.7 65 18.3 81 81 E 10 17 30.01 1016 10 16 0.00 0.00
1:53 am 01:53 Clear 69 20.6 65 18.3 87 87 E 6 9 30.01 1016 10 16 0.00 0.00
2:53 am 02:53 Clear 67 19.4 64 17.8 91 91 ENE 5 7 30.01 1016 10 16 0.00 0.00
3:53 am 03:53 Clear 66 18.9 63 17.2 90 90 NNE 5 7 30.01 1016 10 16 0.00 0.00
4:53 am 04:53 Clear 66 18.9 63 17.2 90 90 NNE 6 9 30.01 1016 10 16 0.00 0.00
5:53 am 05:53 Clear 66 18.9 63 17.2 90 90 NNE 7 11 29.99 1016 10 16 0.00 0.00
6:53 am 06:53 Clear 65 18.3 63 17.2 93 93 NNE 7 11 30.01 1016 10 16 0.00 0.00
7:53 am 07:53 Sunny 66 18.9 63 17.2 90 90 NNE 7 11 30.03 1017 9 14 0.00 0.00
8:53 am 08:53 Sunny 70 21.1 65 18.3 84 84 NE 9 15 30.04 1017 10 16 0.00 0.00
9:53 am 09:53 Sunny 74 23.3 65 18.3 74 74 ENE 10 17 30.06 1018 10 16 0.00 0.00
10:53 am 10:53 Mostly Sunny 77 25 64 17.8 64 64 NE 9 15 30.05 1018 10 16 0.00 0.00
11:53 am 11:53 Partly Cloudy 79 26.1 63 17.2 58 58 NE 9 15 30.04 1017 10 16 0.00 0.00
12:53 pm 12:53 Mostly Cloudy 83 28.3 62 16.7 49 49 ENE 13 20 30.02 1017 10 16 0.00 0.00
1:53 pm 13:53 Mostly Sunny 83 28.3 60 15.6 46 46 ENE 9 15 30.00 1016 10 16 0.00 0.00
2:53 pm 14:53 Mostly Sunny 86 30 60 15.6 42 42 ENE 10 17 29.97 1015 10 16 0.00 0.00
3:53 pm 15:53 Partly Cloudy 86 30 60 15.6 42 42 E 10 17 29.95 1014 10 16 0.00 0.00
4:53 pm 16:53 Mostly Sunny 87 30.6 60 15.6 40 40 NE 12 19 29.93 1013 10 16 0.00 0.00
5:53 pm 17:53 Mostly Sunny 87 30.6 58 14.4 37 37 ENE 15 24 29.92 1013 10 16 0.00 0.00
6:53 pm 18:53 Sunny 86 30 58 14.4 39 39 ENE 9 15 29.91 1013 10 16 0.00 0.00
7:53 pm 19:53 Sunny 83 28.3 59 15 44 44 E 9 15 29.91 1013 10 16 0.00 0.00
8:53 pm 20:53 Clear 76 24.4 63 17.2 64 64 E 6 9 29.93 1014 10 16 0.00 0.00
9:53 pm 21:53 Clear 75 23.9 63 17.2 66 66 E 7 11 29.94 1014 10 16 0.00 0.00
10:53 pm 22:53 Clear 74 23.3 63 17.2 69 69 E 8 13 29.96 1014 10 16 0.00 0.00
11:53 pm 23:53 Clear 72 22.2 63 17.2 73 73 E 7 11 29.97 1015 10 16 0.00 0.00

Powered by AerisWeather